When you browse on this site, cookies collect data to enhance your experience and personalize the content and advertising you see.
Visit our Privacy Policy to learn more. By continuing to use the site, you agree to this use of cookies and data.
  • In Hungary
  • List of Countries
  • For 7 days
  • Water Temperature
  • Satellite Maps
  • Weather Map
  • News
  • Weather Widgets
  • user-avatar
    Login

    Hourly Weather Pervenets'

    Today, 10 December, Monday

    Time Temperature Precipitation Wind Pressure Humidity
    00:00 +1°C° 0 mm 0 mps 745 mmHg 94%
    01:00 +1°C° 0 mm 0 mps 745 mmHg 94%
    02:00 +1°C° 0 mm 0 mps 745 mmHg 94%
    03:00 +2°C° 0 mm 1 mps 745 mmHg 95%
    04:00 +2°C° 0 mm 1 mps 745 mmHg 95%
    05:00 +1°C° 0 mm 1 mps 745 mmHg 95%
    06:00 +1°C° 0 mm 1 mps 745 mmHg 95%
    07:00 +1°C° 0 mm 1 mps 744 mmHg 95%
    08:00 +1°C° 0 mm 1 mps 744 mmHg 95%
    09:00 +2°C° 0 mm 1 mps 744 mmHg 94%
    10:00 +2°C° 0 mm 1 mps 744 mmHg 92%
    11:00 +3°C° 0 mm 1 mps 744 mmHg 91%
    12:00 +3°C° 0 mm 1 mps 744 mmHg 90%
    13:00 +3°C° 0 mm 1 mps 744 mmHg 89%
    14:00 +4°C° 0 mm 1 mps 744 mmHg 89%
    15:00 +3°C° 0 mm 1 mps 745 mmHg 90%
    16:00 +2°C° 0 mm 1 mps 745 mmHg 91%
    17:00 +1°C° 0 mm 1 mps 745 mmHg 93%
    18:00 +1°C° 0 mm 1 mps 745 mmHg 93%
    19:00 +1°C° 0 mm 1 mps 745 mmHg 93%
    20:00 -1°C° 0 mm 0 mps 745 mmHg 93%
    21:00 0°C° 0 mm 1 mps 745 mmHg 93%
    22:00 0°C° 0 mm 1 mps 746 mmHg 93%
    23:00 0°C° 0 mm 1 mps 746 mmHg 93%

    Tomorrow, 11 December, Tuesday

    Time Temperature Precipitation Wind Pressure Humidity
    00:00 0°C° 0 mm 1 mps 746 mmHg 93%
    01:00 -2°C° 0 mm 2 mps 746 mmHg 93%
    02:00 -2°C° 0 mm 2 mps 746 mmHg 93%
    03:00 -2°C° 0 mm 2 mps 746 mmHg 92%
    04:00 -2°C° 0 mm 3 mps 746 mmHg 92%
    05:00 -2°C° 0 mm 3 mps 746 mmHg 92%
    06:00 -2°C° 0 mm 3 mps 746 mmHg 91%
    07:00 -3°C° 0 mm 4 mps 746 mmHg 91%
    08:00 -3°C° 0 mm 4 mps 746 mmHg 91%
    09:00 -2°C° 0 mm 4 mps 746 mmHg 89%
    10:00 -1°C° 0 mm 5 mps 746 mmHg 87%
    11:00 -1°C° 0 mm 5 mps 747 mmHg 84%
    12:00 -2°C° 0.1 mm 6 mps 747 mmHg 85%
    13:00 -1°C° 0.1 mm 6 mps 746 mmHg 85%
    14:00 -1°C° 0.1 mm 6 mps 746 mmHg 86%
    15:00 -2°C° 0.1 mm 6 mps 746 mmHg 87%
    16:00 -2°C° 0.1 mm 7 mps 746 mmHg 88%
    17:00 -2°C° 0.1 mm 7 mps 746 mmHg 88%
    18:00 -2°C° 0.3 mm 7 mps 746 mmHg 88%
    19:00 -2°C° 0.3 mm 7 mps 746 mmHg 88%
    20:00 -2°C° 0.3 mm 7 mps 746 mmHg 87%
    21:00 -4°C° 0.5 mm 8 mps 746 mmHg 87%
    22:00 -4°C° 0.5 mm 8 mps 746 mmHg 87%
    23:00 -4°C° 0.5 mm 8 mps 746 mmHg 87%

    Day after tomorrow, 12 December, Wednesday

    Time Temperature Precipitation Wind Pressure Humidity
    00:00 -4°C° 0.3 mm 8 mps 746 mmHg 87%
    01:00 -4°C° 0.3 mm 8 mps 746 mmHg 87%
    02:00 -4°C° 0.3 mm 8 mps 746 mmHg 86%
    03:00 -4°C° 0.4 mm 8 mps 746 mmHg 87%
    04:00 -4°C° 0.4 mm 8 mps 746 mmHg 87%
    05:00 -4°C° 0.4 mm 8 mps 746 mmHg 88%
    06:00 -4°C° 0.4 mm 8 mps 746 mmHg 88%
    07:00 -4°C° 0.4 mm 8 mps 746 mmHg 88%
    08:00 -4°C° 0.4 mm 8 mps 746 mmHg 88%
    09:00 -4°C° 0.4 mm 8 mps 747 mmHg 87%
    10:00 -4°C° 0.4 mm 8 mps 747 mmHg 86%
    11:00 -2°C° 0.4 mm 8 mps 747 mmHg 86%
    12:00 -2°C° 0.4 mm 8 mps 747 mmHg 85%
    13:00 -2°C° 0.4 mm 8 mps 747 mmHg 85%
    14:00 -2°C° 0.4 mm 8 mps 747 mmHg 84%
    15:00 -2°C° 0.3 mm 8 mps 747 mmHg 84%
    16:00 -2°C° 0.3 mm 8 mps 747 mmHg 84%
    17:00 -2°C° 0.3 mm 8 mps 747 mmHg 85%
    18:00 -4°C° 0.3 mm 8 mps 747 mmHg 85%
    19:00 -4°C° 0.3 mm 8 mps 747 mmHg 86%
    20:00 -3°C° 0.3 mm 7 mps 747 mmHg 86%
    21:00 -3°C° 0.2 mm 7 mps 747 mmHg 86%
    22:00 -3°C° 0.2 mm 7 mps 747 mmHg 86%
    23:00 -3°C° 0.2 mm 7 mps 747 mmHg 86%

    13 December, Thursday

    Time Temperature Precipitation Wind Pressure Humidity
    00:00 -3°C° 0.2 mm 7 mps 748 mmHg 86%
    01:00 -3°C° 0.2 mm 7 mps 748 mmHg 85%
    02:00 -3°C° 0.2 mm 7 mps 748 mmHg 85%
    03:00 -3°C° 0.1 mm 7 mps 748 mmHg 86%
    04:00 -3°C° 0.1 mm 7 mps 748 mmHg 86%
    05:00 -3°C° 0.1 mm 7 mps 748 mmHg 87%
    06:00 -3°C° 0.1 mm 7 mps 748 mmHg 87%
    07:00 -3°C° 0.1 mm 7 mps 748 mmHg 87%
    08:00 -3°C° 0.1 mm 7 mps 748 mmHg 88%
    09:00 -3°C° 0.2 mm 7 mps 748 mmHg 87%
    10:00 -3°C° 0.2 mm 7 mps 749 mmHg 87%
    11:00 -2°C° 0.2 mm 7 mps 749 mmHg 86%
    12:00 -2°C° 0.2 mm 7 mps 749 mmHg 86%
    13:00 -2°C° 0.2 mm 7 mps 749 mmHg 85%
    14:00 -2°C° 0.2 mm 7 mps 749 mmHg 84%
    15:00 -2°C° 0.1 mm 6 mps 749 mmHg 84%
    16:00 -2°C° 0.1 mm 6 mps 749 mmHg 84%
    17:00 -3°C° 0.1 mm 6 mps 749 mmHg 84%
    18:00 -2°C° 0.1 mm 5 mps 750 mmHg 85%
    19:00 -2°C° 0.1 mm 5 mps 750 mmHg 86%
    20:00 -2°C° 0.1 mm 5 mps 750 mmHg 87%
    21:00 -2°C° 0.1 mm 5 mps 751 mmHg 88%
    22:00 -2°C° 0.1 mm 5 mps 751 mmHg 90%
    23:00 -2°C° 0.1 mm 4 mps 751 mmHg 91%

    14 December, Friday

    Time Temperature Precipitation Wind Pressure Humidity
    00:00 -3°C° 0.1 mm 4 mps 751 mmHg 92%
    01:00 -3°C° 0.1 mm 4 mps 752 mmHg 93%
    02:00 -4°C° 0.1 mm 3 mps 752 mmHg 94%
    03:00 -4°C° 0 mm 3 mps 752 mmHg 94%
    04:00 -4°C° 0 mm 3 mps 752 mmHg 95%
    05:00 -4°C° 0 mm 3 mps 752 mmHg 95%
    06:00 -4°C° 0 mm 3 mps 753 mmHg 95%
    07:00 -4°C° 0 mm 3 mps 753 mmHg 94%
    08:00 -3°C° 0 mm 2 mps 753 mmHg 94%
    09:00 -3°C° 0 mm 2 mps 754 mmHg 93%
    10:00 -2°C° 0 mm 2 mps 754 mmHg 92%
    11:00 -1°C° 0 mm 2 mps 755 mmHg 91%
    12:00 -1°C° 0 mm 2 mps 755 mmHg 91%
    13:00 -1°C° 0 mm 2 mps 755 mmHg 91%
    14:00 -1°C° 0 mm 2 mps 755 mmHg 90%
    15:00 +1°C° 0 mm 1 mps 755 mmHg 90%
    16:00 0°C° 0 mm 1 mps 756 mmHg 90%
    17:00 -2°C° 0 mm 0 mps 756 mmHg 90%
    18:00 -2°C° 0 mm 0 mps 756 mmHg 90%
    19:00 -2°C° 0 mm 0 mps 756 mmHg 90%
    20:00 -3°C° 0 mm 0 mps 756 mmHg 90%
    21:00 -2°C° 0 mm 1 mps 756 mmHg 90%
    22:00 -2°C° 0 mm 1 mps 756 mmHg 91%
    23:00 -3°C° 0 mm 1 mps 757 mmHg 91%

    15 December, Saturday

    Time Temperature Precipitation Wind Pressure Humidity
    00:00 -2°C° 0 mm 1 mps 757 mmHg 91%
    01:00 -4°C° 0 mm 2 mps 756 mmHg 91%
    02:00 -4°C° 0 mm 2 mps 756 mmHg 91%
    03:00 -5°C° 0 mm 3 mps 756 mmHg 91%
    04:00 -5°C° 0 mm 3 mps 756 mmHg 91%
    05:00 -5°C° 0 mm 3 mps 756 mmHg 91%
    06:00 -4°C° 0.1 mm 4 mps 756 mmHg 91%
    07:00 -4°C° 0.1 mm 4 mps 756 mmHg 91%
    08:00 -5°C° 0.1 mm 5 mps 756 mmHg 92%
    09:00 -5°C° 0.2 mm 5 mps 756 mmHg 92%
    10:00 -4°C° 0.2 mm 5 mps 756 mmHg 92%
    11:00 -4°C° 0.2 mm 6 mps 756 mmHg 92%
    12:00 -4°C° 0.3 mm 6 mps 756 mmHg 93%
    13:00 -3°C° 0.3 mm 6 mps 756 mmHg 93%
    14:00 -3°C° 0.3 mm 6 mps 755 mmHg 93%
    15:00 -3°C° 0.4 mm 6 mps 755 mmHg 94%
    16:00 -2°C° 0.4 mm 6 mps 755 mmHg 94%
    17:00 -2°C° 0.4 mm 6 mps 755 mmHg 95%
    18:00 -2°C° 0.8 mm 6 mps 755 mmHg 96%
    19:00 -2°C° 0.8 mm 6 mps 754 mmHg 97%
    20:00 -2°C° 0.8 mm 6 mps 754 mmHg 98%
    21:00 -1°C° 0.5 mm 6 mps 754 mmHg 98%
    22:00 -1°C° 0.5 mm 6 mps 754 mmHg 98%
    23:00 0°C° 0.5 mm 5 mps 754 mmHg 99%
    Show more